GW1622 Weather Reports


Display with metric or nautical units.
time (UTC)temp
F
wind
direction
speed
MPH
gust
MPH
rain 1hr
in
rain 24hr
in
rain mn
in
humidity
%
barometer
mb
20260902045519 68 0 0.0 1.0 0.00 0.00 0.00 87 1016.2
20260902045018 68 0 0.0 1.0 0.00 0.00 0.00 87 1016.3
20260902044543 67 0 0.0 0.0 0.00 0.00 0.00 87 1016.2
20260902044019 67 0 0.0 0.0 0.00 0.00 0.00 87 1016.2
20260902043521 67 0 0.0 0.0 0.00 0.00 0.00 87 1016.1
20260902043044 67 0 0.0 0.0 0.00 0.00 0.00 88 1016.1
20260902042521 67 0 0.0 0.0 0.00 0.00 0.00 88 1015.9
20260902042018 67 0 0.0 0.0 0.00 0.00 0.00 87 1015.8
20260902041541 67 0 0.0 0.0 0.00 0.00 0.00 88 1015.7
20260902041020 67 0 0.0 0.0 0.00 0.00 0.00 88 1015.7
20260902040520 67 0 0.0 1.0 0.00 0.00 0.00 88 1015.7
20260902040048 67 0 0.0 1.0 0.00 0.00 0.00 88 1015.6
20260902035517 67 0 0.0 1.0 0.00 0.00 0.00 88 1015.5
20260902035019 67 0 0.0 2.0 0.00 0.00 0.00 88 1015.3
20260902034551 67 0 0.0 2.0 0.00 0.00 0.00 88 1015.1
20260902034020 67 0 0.0 0.0 0.00 0.00 0.00 88 1015.1
20260902033518 67 0 0.0 0.0 0.00 0.00 0.00 87 1015.1
20260902033035 68 0 0.0 0.0 0.00 0.00 0.00 87 1014.9
20260902032520 68 0 0.0 0.0 0.00 0.00 0.00 87 1014.8
20260902032025 68 0 0.0 0.0 0.00 0.00 0.00 87 1014.6
20260902031543 68 0 0.0 0.0 0.00 0.00 0.00 87 1014.6
20260902031020 68 0 0.0 0.0 0.00 0.00 0.00 87 1014.5
20260902030520 68 0 0.0 0.0 0.00 0.00 0.00 87 1014.4
20260902030041 69 0 0.0 0.0 0.00 0.00 0.00 87 1014.4
20260902025516 69 0 0.0 2.0 0.00 0.00 0.00 86 1014.5
20260902025019 69 0 0.0 3.0 0.00 0.00 0.00 86 1014.6
20260902024539 69 0 0.0 3.0 0.00 0.00 0.00 86 1014.5
20260902024018 70 0 0.0 3.0 0.00 0.00 0.00 86 1014.4
20260902023520 70 13 0.0 3.0 0.00 0.00 0.00 86 1014.4
20260902023041 70 5 0.0 2.0 0.00 0.00 0.00 85 1014.4
20260902022518 70 0 0.0 2.0 0.00 0.00 0.00 85 1014.4
20260902022018 70 0 0.0 2.0 0.00 0.00 0.00 85 1014.4
20260902021536 70 0 0.0 2.0 0.00 0.00 0.00 84 1014.4
20260902021018 70 0 0.0 1.0 0.00 0.00 0.00 84 1014.3
20260902020517 69 0 0.0 3.0 0.00 0.00 0.00 83 1014.4
20260902020038 69 0 0.0 3.0 0.00 0.00 0.00 83 1014.4
20260902015522 70 0 0.0 3.0 0.00 0.00 0.00 83 1014.5
20260902015020 70 0 0.0 3.0 0.00 0.00 0.00 82 1014.6
20260902014537 70 24 0.0 3.0 0.00 0.00 0.00 82 1014.6
20260902014020 70 0 0.0 2.0 0.00 0.00 0.00 82 1014.6
20260902013520 70 350 0.0 3.0 0.00 0.00 0.00 82 1014.6
20260902013038 70 18 0.0 3.0 0.00 0.00 0.00 81 1014.6
20260902012523 70 0 0.0 2.0 0.00 0.00 0.00 81 1014.5
20260902012020 70 320 0.0 3.0 0.00 0.00 0.00 81 1014.4
20260902011540 70 0 0.0 4.0 0.00 0.00 0.00 81 1014.3
20260902011021 70 0 1.0 5.0 0.00 0.00 0.00 81 1014.4
20260902010518 71 17 0.0 5.0 0.00 0.00 0.00 80 1014.5
20260902010037 71 0 1.0 5.0 0.00 0.00 0.00 80 1014.5
20260902005521 71 0 0.0 3.0 0.00 0.00 0.00 80 1014.5
20260902005018 71 53 1.0 3.0 0.00 0.00 0.00 79 1014.5
20260902004536 71 348 0.0 3.0 0.00 0.00 0.00 79 1014.5
20260902004021 71 0 1.0 4.0 0.00 0.00 0.00 79 1014.5
20260902003519 71 0 0.0 4.0 0.00 0.00 0.00 79 1014.6
20260902003045 71 330 1.0 4.0 0.00 0.00 0.00 79 1014.6
20260902002518 71 28 1.0 7.0 0.00 0.00 0.00 79 1014.6
20260902002019 72 360 1.0 7.0 0.00 0.00 0.00 78 1014.6
20260902001558 72 0 1.0 3.0 0.00 0.00 0.00 78 1014.5
20260902001021 72 215 1.0 4.0 0.00 0.00 0.00 78 1014.7
20260902000520 72 24 1.0 4.0 0.00 0.00 0.00 78 1014.6
20260902000043 73 19 1.0 5.0 0.00 0.00 0.00 78 1014.6
20260901235518 73 36 1.0 8.0 0.00 0.00 0.00 77 1014.8
20260901235018 73 63 1.0 8.0 0.00 0.00 0.00 77 1014.8
20260901234541 73 13 1.0 9.0 0.00 0.00 0.00 77 1014.8
20260901234025 73 40 3.0 9.0 0.00 0.00 0.00 77 1015.0
20260901233522 73 352 2.0 7.0 0.00 0.00 0.00 76 1015.0
20260901233040 74 36 3.0 6.0 0.00 0.00 0.00 76 1015.0
20260901232519 74 0 2.0 8.0 0.00 0.00 0.00 76 1015.0
20260901232021 74 30 2.0 8.0 0.00 0.00 0.00 75 1015.1
20260901231540 74 38 2.0 8.0 0.00 0.00 0.00 75 1015.0
20260901231020 74 348 1.0 8.0 0.00 0.00 0.00 75 1015.0
20260901230519 74 27 3.0 8.0 0.00 0.00 0.00 75 1015.1
20260901230041 75 5 1.0 7.0 0.00 0.00 0.00 74 1015.1
20260901225518 75 13 2.0 7.0 0.00 0.00 0.00 74 1015.0
20260901225025 76 338 1.0 4.0 0.00 0.00 0.00 73 1015.1
20260901224542 76 19 2.0 9.0 0.00 0.00 0.00 73 1015.3
20260901224023 75 13 2.0 9.0 0.00 0.00 0.00 74 1015.1
20260901223521 75 302 2.0 10.0 0.00 0.00 0.00 74 1015.1
20260901223048 75 352 4.0 10.0 0.00 0.00 0.00 74 1015.2
20260901222520 76 305 2.0 8.0 0.00 0.00 0.00 73 1015.3
20260901222018 77 14 1.0 8.0 0.00 0.00 0.00 72 1015.2
20260901221555 78 271 1.0 8.0 0.00 0.00 0.00 71 1015.3
20260901221020 77 243 1.0 11.0 0.00 0.00 0.00 73 1015.3
20260901220518 77 302 2.0 11.0 0.00 0.00 0.00 71 1015.3
20260901220052 77 261 2.0 11.0 0.00 0.00 0.00 72 1015.4
20260901215520 77 345 2.0 11.0 0.00 0.00 0.00 71 1015.5
20260901215021 78 28 1.0 6.0 0.00 0.00 0.00 71 1015.4
20260901214540 78 350 2.0 8.0 0.00 0.00 0.00 70 1015.4
20260901214018 78 157 0.0 11.0 0.00 0.00 0.00 71 1015.4
20260901213519 78 12 1.0 11.0 0.00 0.00 0.00 70 1015.4
20260901213041 77 352 3.0 9.0 0.00 0.00 0.00 70 1015.4
20260901212518 79 0 0.0 6.0 0.00 0.00 0.00 70 1015.4
20260901212025 79 228 2.0 8.0 0.00 0.00 0.00 69 1015.4
20260901211540 80 5 2.0 8.0 0.00 0.00 0.00 70 1015.5
20260901211024 78 38 1.0 6.0 0.00 0.00 0.00 71 1015.5
20260901210524 78 46 1.0 9.0 0.00 0.00 0.00 71 1015.5
20260901210043 78 330 3.0 9.0 0.00 0.00 0.00 69 1015.4
20260901205523 80 52 2.0 9.0 0.00 0.00 0.00 67 1015.5
20260901205025 79 72 2.0 7.0 0.00 0.00 0.00 71 1015.4
20260901204542 78 17 2.0 8.0 0.00 0.00 0.00 71 1015.5
20260901204019 78 360 2.0 8.0 0.00 0.00 0.00 70 1015.5
20260901203518 77 89 2.0 8.0 0.00 0.00 0.00 71 1015.5
20260901203047 78 19 2.0 10.0 0.00 0.00 0.00 71 1015.6
20260901202523 78 49 2.0 10.0 0.00 0.00 0.00 72 1015.6
20260901202019 79 352 3.0 10.0 0.00 0.00 0.00 70 1015.7
20260901201541 79 273 2.0 6.0 0.00 0.00 0.00 70 1015.6
20260901201019 79 96 2.0 9.0 0.00 0.00 0.00 69 1015.8
20260901200517 79 242 2.0 9.0 0.00 0.00 0.00 72 1015.8
20260901200042 78 63 2.0 9.0 0.00 0.00 0.00 72 1015.8
20260901195520 77 77 3.0 9.0 0.00 0.00 0.00 72 1015.8
20260901195021 78 36 2.0 8.0 0.00 0.00 0.00 72 1015.9
20260901194538 78 49 2.0 9.0 0.00 0.00 0.00 70 1016.1
20260901194018 78 70 3.0 9.0 0.00 0.00 0.00 70 1016.1
20260901193518 77 22 3.0 9.0 0.00 0.00 0.00 71 1016.1
20260901193043 77 333 2.0 8.0 0.00 0.00 0.00 71 1016.1
20260901192519 79 25 2.0 7.0 0.00 0.00 0.00 69 1016.1
20260901192020 77 25 2.0 7.0 0.00 0.00 0.00 73 1016.2
20260901191552 77 19 2.0 8.0 0.00 0.00 0.00 70 1016.2
20260901191019 77 196 3.0 8.0 0.00 0.00 0.00 72 1016.2
20260901190521 77 55 2.0 8.0 0.00 0.00 0.00 72 1016.3
20260901190040 78 190 2.0 9.0 0.00 0.00 0.00 72 1016.3
20260901185523 77 22 2.0 9.0 0.00 0.00 0.00 72 1016.2
20260901185021 77 327 3.0 9.0 0.00 0.00 0.00 71 1016.3
20260901184546 76 167 3.0 8.0 0.00 0.00 0.00 73 1016.3
20260901184018 76 23 3.0 8.0 0.00 0.00 0.00 74 1016.5
20260901183518 76 34 2.0 8.0 0.00 0.00 0.00 74 1016.4
20260901183047 76 55 3.0 8.0 0.00 0.00 0.00 75 1016.5
20260901182518 75 16 3.0 8.0 0.00 0.00 0.00 75 1016.4
20260901182021 76 81 1.0 5.0 0.00 0.00 0.00 74 1016.5
20260901181540 76 81 1.0 8.0 0.00 0.00 0.00 73 1016.6
20260901181018 76 309 2.0 8.0 0.00 0.00 0.00 74 1016.5
20260901180524 75 30 3.0 8.0 0.00 0.00 0.00 75 1016.5
20260901180039 75 86 2.0 6.0 0.00 0.00 0.00 74 1016.5
20260901175519 76 352 1.0 6.0 0.00 0.00 0.00 74 1016.6
20260901175023 75 5 2.0 6.0 0.00 0.00 0.00 75 1016.5
20260901174547 75 5 1.0 9.0 0.00 0.00 0.00 75 1016.6
20260901174020 74 136 2.0 9.0 0.00 0.00 0.00 76 1016.4
20260901173520 75 46 2.0 7.0 0.00 0.00 0.00 76 1016.4
20260901173055 74 14 3.0 8.0 0.00 0.00 0.00 75 1016.3
20260901172517 74 343 2.0 9.0 0.00 0.00 0.00 76 1016.3
20260901172018 74 71 1.0 9.0 0.00 0.00 0.00 75 1016.2
20260901171542 75 49 3.0 9.0 0.00 0.00 0.00 73 1016.2
20260901171019 75 17 1.0 8.0 0.00 0.00 0.00 75 1016.2
20260901170519 74 294 2.0 9.0 0.00 0.00 0.00 76 1016.2
20260901170045 74 34 1.0 9.0 0.00 0.00 0.00 76 1016.2
20260901165517 74 351 2.0 6.0 0.00 0.00 0.00 76 1016.2
20260901165020 74 0 0.0 4.0 0.00 0.00 0.00 77 1016.1
20260901164545 74 0 1.0 4.0 0.00 0.00 0.00 77 1016.1
20260901164017 73 0 1.0 6.0 0.00 0.00 0.00 77 1016.1
20260901163520 73 0 2.0 6.0 0.00 0.00 0.00 78 1016.0
20260901163042 73 360 2.0 5.0 0.00 0.00 0.00 78 1015.9
20260901162519 72 0 1.0 4.0 0.00 0.00 0.00 80 1016.0
20260901162022 72 73 1.0 3.0 0.00 0.00 0.00 80 1016.0
20260901161555 72 253 0.0 3.0 0.00 0.00 0.00 81 1016.0
20260901161024 72 9 0.0 3.0 0.00 0.00 0.00 82 1016.0
20260901160527 72 30 0.0 3.0 0.00 0.00 0.00 82 1015.9
20260901160041 71 29 0.0 3.0 0.00 0.00 0.00 84 1015.9
20260901155524 70 29 1.0 3.0 0.00 0.00 0.00 85 1015.9
20260901155019 70 39 1.0 2.0 0.00 0.00 0.00 86 1016.0
20260901154552 70 0 0.0 2.0 0.00 0.00 0.00 88 1016.0
20260901154020 68 12 1.0 2.0 0.00 0.00 0.00 89 1015.9
20260901153616 68 336 0.0 2.0 0.00 0.00 0.00 90 1015.9
20260901153527 68 336 0.0 2.0 0.00 0.00 0.00 90 1015.9
20260901153050 68 332 1.0 2.0 0.00 0.00 0.00 91 1015.7
20260901152518 67 36 0.0 3.0 0.00 0.00 0.00 92 1015.8
20260901152017 66 36 1.0 3.0 0.00 0.00 0.00 92 1015.7
20260901151541 66 36 0.0 2.0 0.00 0.00 0.00 92 1015.7
20260901151020 66 0 0.0 2.0 0.00 0.00 0.00 93 1015.6
20260901150518 65 36 0.0 2.0 0.00 0.00 0.00 93 1015.6
20260901150042 65 0 0.0 2.0 0.00 0.00 0.00 93 1015.5
20260901145519 65 12 0.0 2.0 0.00 0.00 0.00 93 1015.6
20260901145023 65 0 1.0 2.0 0.00 0.00 0.00 93 1015.6
20260901144547 64 49 1.0 2.0 0.00 0.00 0.00 93 1015.6
20260901144022 64 49 0.0 2.0 0.00 0.00 0.00 93 1015.5
20260901143518 64 0 0.0 1.0 0.00 0.00 0.00 93 1015.5
20260901143047 64 0 0.0 1.0 0.00 0.00 0.00 93 1015.4
20260901142519 64 0 0.0 1.0 0.00 0.00 0.00 93 1015.5
20260901142020 64 0 0.0 1.0 0.00 0.00 0.00 93 1015.5
20260901141547 64 0 0.0 1.0 0.00 0.00 0.00 93 1015.6
20260901141019 64 0 0.0 2.0 0.00 0.00 0.00 93 1015.4
20260901140518 64 0 0.0 2.0 0.00 0.00 0.00 93 1015.4
20260901140036 64 187 0.0 1.0 0.00 0.00 0.00 93 1015.4
20260901135523 64 0 0.0 1.0 0.00 0.00 0.00 93 1015.3
20260901135024 64 0 0.0 1.0 0.00 0.00 0.00 93 1015.3
20260901134542 64 0 0.0 1.0 0.00 0.00 0.00 93 1015.3
20260901134017 64 0 0.0 1.0 0.00 0.00 0.00 93 1015.3
20260901133517 64 0 0.0 2.0 0.00 0.00 0.00 93 1015.1
20260901133036 64 0 0.0 2.0 0.00 0.00 0.00 93 1015.1
20260901132521 64 0 0.0 2.0 0.00 0.00 0.00 93 1015.1
20260901132020 64 0 0.0 2.0 0.00 0.00 0.00 93 1015.0
20260901131536 64 0 0.0 1.0 0.00 0.00 0.00 93 1014.9
20260901131023 64 0 0.0 2.0 0.00 0.00 0.00 93 1014.9
20260901130521 64 0 0.0 2.0 0.00 0.00 0.00 93 1014.7
20260901130044 64 0 0.0 1.0 0.00 0.00 0.00 93 1014.8
20260901125520 64 0 0.0 0.0 0.00 0.00 0.00 93 1014.7
20260901125021 64 0 0.0 0.0 0.00 0.00 0.00 93 1014.7
20260901124541 65 0 0.0 0.0 0.00 0.00 0.00 93 1014.6
20260901124020 65 0 0.0 0.0 0.00 0.00 0.00 93 1014.6
20260901123517 65 0 0.0 0.0 0.00 0.00 0.00 93 1014.7
20260901123040 64 0 0.0 0.0 0.00 0.00 0.00 93 1014.6
20260901122517 64 0 0.0 0.0 0.00 0.00 0.00 93 1014.7
20260901122018 64 0 0.0 0.0 0.00 0.00 0.00 93 1014.5
20260901121538 65 0 0.0 0.0 0.00 0.00 0.00 93 1014.5
20260901121021 65 0 0.0 0.0 0.00 0.00 0.00 93 1014.5
20260901120523 65 0 0.0 0.0 0.00 0.00 0.00 93 1014.5
20260901120042 64 0 0.0 0.0 0.00 0.00 0.00 93 1014.5
20260901115519 64 0 0.0 0.0 0.00 0.00 0.00 92 1014.3
20260901115020 65 0 0.0 0.0 0.00 0.00 0.00 92 1014.4
20260901114604 65 0 0.0 0.0 0.00 0.00 0.00 92 1014.5
20260901114020 65 0 0.0 0.0 0.00 0.00 0.00 93 1014.4
20260901113519 65 0 0.0 0.0 0.00 0.00 0.00 93 1014.6
20260901113040 65 0 0.0 1.0 0.00 0.00 0.00 92 1014.6
20260901112519 65 0 0.0 1.0 0.00 0.00 0.00 92 1014.7
20260901112024 65 0 0.0 1.0 0.00 0.00 0.00 93 1014.6
20260901111547 65 0 0.0 1.0 0.00 0.00 0.00 93 1014.7
20260901111017 65 0 0.0 0.0 0.00 0.00 0.00 92 1014.5
20260901110517 65 0 0.0 0.0 0.00 0.00 0.00 92 1014.6
20260901110041 65 0 0.0 0.0 0.00 0.00 0.00 92 1014.5
20260901105519 65 0 0.0 0.0 0.00 0.00 0.00 92 1014.6
20260901105017 65 0 0.0 0.0 0.00 0.00 0.00 92 1014.6
20260901104541 66 0 0.0 0.0 0.00 0.00 0.00 92 1014.6
20260901104019 66 0 0.0 0.0 0.00 0.00 0.00 92 1014.7
20260901103519 66 0 0.0 0.0 0.00 0.00 0.00 92 1014.6
20260901103042 66 0 0.0 0.0 0.00 0.00 0.00 92 1014.6
20260901102521 66 0 0.0 0.0 0.00 0.00 0.00 92 1014.5
20260901102018 66 0 0.0 0.0 0.00 0.00 0.00 92 1014.6
20260901101543 66 0 0.0 0.0 0.00 0.00 0.00 92 1014.6
20260901101022 66 0 0.0 0.0 0.00 0.00 0.00 92 1014.6
20260901100520 66 0 0.0 0.0 0.00 0.00 0.00 92 1014.8
20260901100042 66 0 0.0 0.0 0.00 0.00 0.00 92 1014.8
20260901095520 65 0 0.0 1.0 0.00 0.00 0.00 92 1014.7
20260901095020 65 0 0.0 2.0 0.00 0.00 0.00 93 1014.7
20260901094541 66 0 0.0 2.0 0.00 0.00 0.00 92 1014.7
20260901094020 66 162 0.0 2.0 0.00 0.00 0.00 92 1014.9
20260901093521 66 0 0.0 2.0 0.00 0.00 0.00 92 1014.7
20260901093039 66 0 0.0 2.0 0.00 0.00 0.00 92 1014.9
20260901092519 66 0 0.0 3.0 0.00 0.00 0.00 93 1014.9
20260901092020 66 0 0.0 3.0 0.00 0.00 0.00 93 1014.7
20260901091543 65 5 0.0 2.0 0.00 0.00 0.00 93 1014.7
20260901091017 65 0 0.0 0.0 0.00 0.00 0.00 92 1014.7
20260901090519 65 0 0.0 0.0 0.00 0.00 0.00 93 1014.7
20260901090049 64 0 0.0 0.0 0.00 0.00 0.00 92 1014.6
20260901085521 64 0 0.0 0.0 0.00 0.00 0.00 92 1014.5
20260901085019 64 0 0.0 0.0 0.00 0.00 0.00 92 1014.5
20260901084543 65 0 0.0 0.0 0.00 0.00 0.00 92 1014.7
20260901084026 65 0 0.0 0.0 0.00 0.00 0.00 92 1014.7
20260901083519 65 0 0.0 0.0 0.00 0.00 0.00 92 1014.6
20260901083042 65 0 0.0 0.0 0.00 0.00 0.00 92 1014.6
20260901082519 66 0 0.0 0.0 0.00 0.00 0.00 92 1014.7
20260901082017 66 0 0.0 0.0 0.00 0.00 0.00 92 1014.6
20260901081540 66 0 0.0 0.0 0.00 0.00 0.00 92 1014.7
20260901081018 66 0 0.0 0.0 0.00 0.00 0.00 91 1014.6
20260901080518 66 0 0.0 0.0 0.00 0.00 0.00 92 1014.7
20260901080041 66 0 0.0 0.0 0.00 0.00 0.00 91 1014.9
20260901075520 66 0 0.0 0.0 0.00 0.00 0.00 92 1014.8
20260901075022 66 0 0.0 0.0 0.00 0.00 0.00 91 1014.7
20260901074545 66 0 0.0 0.0 0.00 0.00 0.00 91 1014.7
20260901074018 66 0 0.0 0.0 0.00 0.00 0.00 91 1014.9
20260901073521 66 0 0.0 0.0 0.00 0.00 0.00 91 1015.0
20260901073037 66 0 0.0 0.0 0.00 0.00 0.00 91 1014.9
20260901072523 66 0 0.0 0.0 0.00 0.00 0.00 91 1015.0
20260901072019 66 0 0.0 0.0 0.00 0.00 0.00 91 1015.0
20260901071541 66 0 0.0 0.0 0.00 0.00 0.00 91 1015.0
20260901071018 66 0 0.0 0.0 0.00 0.00 0.00 91 1015.0
20260901070522 66 0 0.0 0.0 0.00 0.00 0.00 90 1015.0
20260901070051 67 0 0.0 0.0 0.00 0.00 0.00 90 1015.1
20260901065520 67 0 0.0 0.0 0.00 0.00 0.00 90 1014.9
20260901065017 67 0 0.0 0.0 0.00 0.00 0.00 90 1014.9
20260901064540 67 0 0.0 0.0 0.00 0.00 0.00 90 1015.0
20260901064021 67 0 0.0 0.0 0.00 0.00 0.00 90 1014.9
20260901063518 67 0 0.0 0.0 0.00 0.00 0.00 90 1014.9
20260901063041 67 0 0.0 0.0 0.00 0.00 0.00 90 1014.9
20260901062517 67 0 0.0 0.0 0.00 0.00 0.00 90 1014.9
20260901062023 67 0 0.0 0.0 0.00 0.00 0.00 90 1014.9
20260901061541 67 0 0.0 0.0 0.00 0.00 0.00 90 1014.8
20260901061018 67 0 0.0 0.0 0.00 0.00 0.00 90 1014.8
20260901060520 67 0 0.0 0.0 0.00 0.00 0.00 90 1014.8
20260901060041 67 0 0.0 0.0 0.00 0.00 0.00 89 1014.9
20260901055521 67 0 0.0 0.0 0.00 0.00 0.00 89 1014.9
20260901055021 67 0 0.0 0.0 0.00 0.00 0.00 89 1014.9
20260901054540 67 0 0.0 0.0 0.00 0.00 0.00 89 1014.8
20260901054020 67 0 0.0 0.0 0.00 0.00 0.00 89 1015.0
20260901053520 67 0 0.0 0.0 0.00 0.00 0.00 89 1014.9
20260901053044 67 0 0.0 0.0 0.00 0.00 0.00 89 1014.7
20260901052518 67 0 0.0 0.0 0.00 0.00 0.00 89 1014.7
20260901052017 67 0 0.0 0.0 0.00 0.00 0.00 89 1014.7
20260901051542 67 0 0.0 0.0 0.00 0.00 0.00 89 1014.6
20260901051026 67 0 0.0 0.0 0.00 0.00 0.00 88 1014.4
20260901050519 67 0 0.0 0.0 0.00 0.00 0.00 88 1014.4
20260901050045 68 0 0.0 0.0 0.00 0.00 0.00 88 1014.5